Find Starlink 1234

NORAD ID: 45190 Int'l Des: 2020-012 Owner: SPXS Country: US Constellation: starlink operational
LEOCIRCULAR

Current View

Loading 3D Globe...

About Starlink 1234

Starlink 1234 (NORAD 45190) is a starlink constellation satellite (v1.0) launched Feb 17, 2020 by SPXS of US. It operates in LEO, CIRCULAR orbit with a mass of 260.00 kg.

About Starlink 1234

Description loading...

Upcoming Passes

Passes for default location (London). Set your location on the main map for personalized predictions.

Altitude History

Loading altitude history...

Two-Line Element Set

1 45190U 20012N 26166.79313842 .00065024 00000-0 41531-3 0 9996
2 45190 53.0341 200.6846 0004995 310.0866 49.9715 15.75756559351283
Epoch: Jun 15, 2026 • Age: 14 hours

Current Status

Altitude 342.1 km
Velocity 7.71 km/s
Sub-Earth Point 22.04°N, 178.02°E
Launch Date Feb 17, 2020
Age 6.3 years
Type internet

Technical Details

Classification Payload
Mass 260.00 kg
Dry Mass 248.00 kg
Total Mass 260.00 kg
Length 0.20 m
Diameter 2.80 m
Span 9.00 m
Shape Box + pan
Manufacturer SPXS
Bus Type Starlink
Phase Status In Orbit
Owner/State SPXS/US

Most Searched